• In Deutschland
  • Länderverzeichnis
  • Für 7 Tage
  • Wassertemperatur
  • Satellitenkarten
  • Wetterkarte
  • Widgets
  • user-avatar
    Anmelden

    Stündliche Wetter Recklinghausen

    Heute, 17 Oktober, Dienstag

    Zeit Temperatur Niederschläge Wind Luftdruck Luftfeuchtigkeit
    00:00 +17°C° 0 mm 3 m/S 759 mmHg 69%
    01:00 +16°C° 0 mm 3 m/S 759 mmHg 72%
    02:00 +16°C° 0 mm 3 m/S 759 mmHg 75%
    03:00 +15°C° 0 mm 2 m/S 759 mmHg 78%
    04:00 +15°C° 0 mm 2 m/S 759 mmHg 80%
    05:00 +15°C° 0 mm 2 m/S 759 mmHg 83%
    06:00 +14°C° 0 mm 2 m/S 759 mmHg 86%
    07:00 +16°C° 0 mm 2 m/S 759 mmHg 82%
    08:00 +17°C° 0 mm 2 m/S 759 mmHg 77%
    09:00 +18°C° 0 mm 2 m/S 759 mmHg 73%
    10:00 +19°C° 0 mm 2 m/S 759 mmHg 70%
    11:00 +20°C° 0 mm 2 m/S 759 mmHg 67%
    12:00 +20°C° 0 mm 2 m/S 759 mmHg 63%
    13:00 +20°C° 0 mm 2 m/S 758 mmHg 64%
    14:00 +20°C° 0 mm 2 m/S 758 mmHg 65%
    15:00 +21°C° 0 mm 1 m/S 757 mmHg 67%
    16:00 +20°C° 0 mm 1 m/S 757 mmHg 70%
    17:00 +19°C° 0 mm 1 m/S 757 mmHg 74%
    18:00 +15°C° 0 mm 0 m/S 757 mmHg 78%
    19:00 +15°C° 0 mm 0 m/S 757 mmHg 80%
    20:00 +16°C° 0 mm 1 m/S 757 mmHg 81%
    21:00 +15°C° 0 mm 1 m/S 756 mmHg 83%
    22:00 +15°C° 0 mm 1 m/S 756 mmHg 84%
    23:00 +15°C° 0 mm 1 m/S 756 mmHg 85%

    Morgen, 18 Oktober, Mittwoch

    Zeit Temperatur Niederschläge Wind Luftdruck Luftfeuchtigkeit
    00:00 +15°C° 0 mm 1 m/S 756 mmHg 86%
    01:00 +14°C° 0 mm 1 m/S 755 mmHg 86%
    02:00 +14°C° 0 mm 1 m/S 755 mmHg 87%
    03:00 +14°C° 0 mm 1 m/S 755 mmHg 88%
    04:00 +14°C° 0 mm 1 m/S 754 mmHg 88%
    05:00 +14°C° 0 mm 2 m/S 754 mmHg 89%
    06:00 +13°C° 0 mm 2 m/S 754 mmHg 89%
    07:00 +15°C° 0 mm 2 m/S 754 mmHg 83%
    08:00 +16°C° 0 mm 2 m/S 754 mmHg 77%
    09:00 +17°C° 0 mm 2 m/S 754 mmHg 71%
    10:00 +18°C° 0 mm 2 m/S 753 mmHg 66%
    11:00 +19°C° 0 mm 2 m/S 753 mmHg 60%
    12:00 +21°C° 0 mm 1 m/S 753 mmHg 54%
    13:00 +21°C° 0 mm 1 m/S 753 mmHg 55%
    14:00 +21°C° 0 mm 1 m/S 752 mmHg 56%
    15:00 +21°C° 0 mm 1 m/S 752 mmHg 58%
    16:00 +20°C° 0 mm 1 m/S 752 mmHg 61%
    17:00 +19°C° 0 mm 1 m/S 752 mmHg 65%
    18:00 +16°C° 0 mm 1 m/S 752 mmHg 69%
    19:00 +16°C° 0 mm 1 m/S 753 mmHg 71%
    20:00 +15°C° 0 mm 2 m/S 753 mmHg 74%
    21:00 +15°C° 0 mm 2 m/S 753 mmHg 76%
    22:00 +15°C° 0 mm 2 m/S 753 mmHg 78%
    23:00 +14°C° 0 mm 2 m/S 753 mmHg 80%

    übermorgen, 19 Oktober, Donnerstag

    Zeit Temperatur Niederschläge Wind Luftdruck Luftfeuchtigkeit
    00:00 +14°C° 0 mm 2 m/S 752 mmHg 81%
    01:00 +14°C° 0 mm 2 m/S 752 mmHg 82%
    02:00 +14°C° 0 mm 2 m/S 752 mmHg 83%
    03:00 +13°C° 0 mm 2 m/S 752 mmHg 84%
    04:00 +13°C° 0 mm 2 m/S 752 mmHg 85%
    05:00 +13°C° 0 mm 2 m/S 752 mmHg 86%
    06:00 +13°C° 0 mm 2 m/S 752 mmHg 86%
    07:00 +14°C° 0 mm 2 m/S 752 mmHg 81%
    08:00 +16°C° 0 mm 3 m/S 752 mmHg 75%
    09:00 +17°C° 0 mm 3 m/S 752 mmHg 69%
    10:00 +18°C° 0 mm 3 m/S 751 mmHg 65%
    11:00 +20°C° 0 mm 3 m/S 751 mmHg 61%
    12:00 +21°C° 0 mm 3 m/S 751 mmHg 57%
    13:00 +21°C° 0 mm 3 m/S 751 mmHg 59%
    14:00 +21°C° 0 mm 3 m/S 750 mmHg 60%
    15:00 +21°C° 0 mm 3 m/S 750 mmHg 61%
    16:00 +20°C° 0 mm 3 m/S 750 mmHg 62%
    17:00 +19°C° 0 mm 3 m/S 750 mmHg 63%
    18:00 +18°C° 0 mm 4 m/S 750 mmHg 65%
    19:00 +18°C° 0 mm 4 m/S 750 mmHg 63%
    20:00 +18°C° 0 mm 4 m/S 750 mmHg 62%
    21:00 +18°C° 0 mm 4 m/S 750 mmHg 61%
    22:00 +17°C° 0 mm 4 m/S 749 mmHg 61%
    23:00 +16°C° 0 mm 5 m/S 749 mmHg 61%

    20 Oktober, Freitag

    Zeit Temperatur Niederschläge Wind Luftdruck Luftfeuchtigkeit
    00:00 +16°C° 0 mm 5 m/S 749 mmHg 62%
    01:00 +16°C° 0 mm 5 m/S 749 mmHg 65%
    02:00 +16°C° 0 mm 5 m/S 749 mmHg 68%
    03:00 +15°C° 0 mm 5 m/S 748 mmHg 71%
    04:00 +15°C° 0,4 mm 6 m/S 748 mmHg 74%
    05:00 +15°C° 0,4 mm 6 m/S 748 mmHg 77%
    06:00 +15°C° 0,4 mm 7 m/S 748 mmHg 79%
    07:00 +15°C° 0,3 mm 7 m/S 749 mmHg 75%
    08:00 +15°C° 0,3 mm 7 m/S 749 mmHg 71%
    09:00 +15°C° 0,3 mm 8 m/S 750 mmHg 67%
    10:00 +15°C° 0 mm 8 m/S 750 mmHg 64%
    11:00 +16°C° 0 mm 8 m/S 751 mmHg 61%
    12:00 +16°C° 0 mm 8 m/S 751 mmHg 57%
    13:00 +16°C° 0 mm 7 m/S 751 mmHg 58%
    14:00 +15°C° 0 mm 6 m/S 751 mmHg 59%
    15:00 +15°C° 0 mm 5 m/S 752 mmHg 60%
    16:00 +14°C° 0 mm 5 m/S 752 mmHg 63%
    17:00 +13°C° 0 mm 4 m/S 752 mmHg 66%
    18:00 +12°C° 0 mm 3 m/S 752 mmHg 68%
    19:00 +12°C° 0 mm 3 m/S 752 mmHg 70%
    20:00 +12°C° 0 mm 3 m/S 752 mmHg 72%
    21:00 +12°C° 0 mm 3 m/S 752 mmHg 74%
    22:00 +12°C° 0 mm 3 m/S 751 mmHg 76%
    23:00 +13°C° 0 mm 4 m/S 750 mmHg 79%

    21 Oktober, Samstag

    Zeit Temperatur Niederschläge Wind Luftdruck Luftfeuchtigkeit
    00:00 +13°C° 0 mm 4 m/S 750 mmHg 81%
    01:00 +14°C° 0,1 mm 4 m/S 749 mmHg 79%
    02:00 +14°C° 0,1 mm 5 m/S 748 mmHg 78%
    03:00 +15°C° 0,1 mm 5 m/S 748 mmHg 76%
    04:00 +15°C° 1,2 mm 6 m/S 747 mmHg 78%
    05:00 +15°C° 1,2 mm 6 m/S 747 mmHg 80%
    06:00 +15°C° 1,2 mm 6 m/S 746 mmHg 83%
    07:00 +16°C° 0,3 mm 6 m/S 747 mmHg 78%
    08:00 +16°C° 0,3 mm 7 m/S 747 mmHg 74%
    09:00 +16°C° 0,3 mm 7 m/S 747 mmHg 70%
    10:00 +17°C° 0 mm 8 m/S 747 mmHg 64%
    11:00 +17°C° 0 mm 9 m/S 747 mmHg 58%
    12:00 +17°C° 0 mm 9 m/S 747 mmHg 51%
    13:00 +17°C° 0 mm 9 m/S 747 mmHg 51%
    14:00 +16°C° 0 mm 8 m/S 746 mmHg 51%
    15:00 +15°C° 0 mm 8 m/S 746 mmHg 51%
    16:00 +15°C° 0 mm 8 m/S 747 mmHg 51%
    17:00 +13°C° 0 mm 8 m/S 747 mmHg 52%
    18:00 +12°C° 0 mm 8 m/S 747 mmHg 52%
    19:00 +11°C° 0 mm 8 m/S 747 mmHg 53%
    20:00 +11°C° 0 mm 8 m/S 747 mmHg 55%
    21:00 +10°C° 0 mm 9 m/S 747 mmHg 56%
    22:00 +10°C° 0 mm 9 m/S 748 mmHg 57%
    23:00 +10°C° 0 mm 9 m/S 748 mmHg 58%

    22 Oktober, Sonntag

    Zeit Temperatur Niederschläge Wind Luftdruck Luftfeuchtigkeit
    00:00 +8°C° 0 mm 9 m/S 748 mmHg 59%
    01:00 +8°C° 0 mm 9 m/S 748 mmHg 60%
    02:00 +9°C° 0 mm 8 m/S 748 mmHg 61%
    03:00 +9°C° 0 mm 8 m/S 748 mmHg 62%
    04:00 +9°C° 0 mm 8 m/S 748 mmHg 62%
    05:00 +9°C° 0 mm 8 m/S 748 mmHg 62%
    06:00 +7°C° 0 mm 8 m/S 748 mmHg 63%
    07:00 +8°C° 0 mm 9 m/S 748 mmHg 61%
    08:00 +8°C° 0 mm 9 m/S 748 mmHg 60%
    09:00 +9°C° 0 mm 10 m/S 748 mmHg 58%
    10:00 +9°C° 0,1 mm 10 m/S 748 mmHg 59%
    11:00 +8°C° 0,1 mm 10 m/S 748 mmHg 61%
    12:00 +8°C° 0,1 mm 10 m/S 748 mmHg 62%
    13:00 +8°C° 0,2 mm 10 m/S 747 mmHg 65%
    14:00 +8°C° 0,2 mm 9 m/S 747 mmHg 68%
    15:00 +8°C° 0,2 mm 9 m/S 747 mmHg 71%
    16:00 +8°C° 0,3 mm 9 m/S 747 mmHg 73%
    17:00 +8°C° 0,3 mm 9 m/S 748 mmHg 75%
    18:00 +8°C° 0,3 mm 9 m/S 748 mmHg 77%
    19:00 +9°C° 0,3 mm 8 m/S 748 mmHg 77%
    20:00 +9°C° 0,3 mm 8 m/S 749 mmHg 78%
    21:00 +9°C° 0,3 mm 8 m/S 749 mmHg 78%
    22:00 +9°C° 0,5 mm 8 m/S 749 mmHg 79%
    23:00 +9°C° 0,5 mm 8 m/S 749 mmHg 80%
    Mehr zeigen